User: anonymous   Login
Location: Peebles
(55.6412°N, 3.1714°W)
Time: 10:03:53
(UTC+01:00)
Language:

FENGYUN 1C DEB - Orbit

View from above orbital plane
View from above orbital plane
View from above satellite
View from above satellite

Ground track
Ground track

The orbit data is extracted from the following two-line orbital elements,

1 29963U 99025KM  22176.77153650  .00000673  00000-0  31034-3 0  9996
2 29963  99.1048   0.7932 0053517 347.6802 134.5264 14.23808308800969
Epoch (UTC): 25 June 2022 18:31:00
Eccentricity: 0.0053517
inclination: 99.1048°
perigee height: 774 km
apogee height: 851 km
right ascension of ascending node: 0.7932°
argument of perigee: 347.6802°
revolutions per day: 14.23808308
mean anomaly at epoch: 134.5264°
orbit number at epoch: 80096

The dashed part of the orbit path shows where the satellite is in the earth's shadow,  

DLR